Powrót do katalogu

STARLINK-2232

AktywnyŁącznośćVLEO
NORAD 48578·PAYLOAD·🇺🇸 United States

Wystrzelony May 15, 2021 z Cape Canaveral Space Force Station

Loading…

Następne Przeloty (najbliższe 24 godziny)

TLE

ŚwieżeSource: CelesTrak SupGP

Epoka: Sep 14, 2026, 20:10 UTC

1 48578C 21041AB  26257.84076389 -.00031217  00000+0 -10038-2 0  2573
2 48578  53.1601 326.4817 0001060  80.9004 136.0761 15.31718886    12

Śledź STARLINK-2232 w czasie rzeczywistym z AllMySat

Download on the App Store